Location: LDNL
(36.4545°S, 141.6685°E)
Time: 23:35:32
(UTC+10:00)

Oscar 19 - Visible Passes

Search period start: 25 September 2022 00:00
Search period end: 05 October 2022 01:00
Orbit: 774 x 789 km, 98.8° (Epoch: 24 September)

Date Brightness Start Highest point End Pass type
(mag) Time Alt. Az. Time Alt. Az. Time Alt. Az.
25 Sep 13.1 03:01:02 15° S 03:01:02 15° S 03:01:56 10° S visible
26 Sep 13.4 02:28:21 13° SSE 02:28:21 13° SSE 02:29:10 10° SSE visible
26 Sep 12.9 04:08:52 11° SSW 04:08:52 11° SSW 04:09:08 10° SSW visible
27 Sep 12.7 03:36:11 17° SSW 03:36:11 17° SSW 03:37:21 10° SSW visible
28 Sep 12.8 03:03:30 20° S 03:03:30 20° S 03:05:08 10° S visible
29 Sep 13.2 02:30:49 17° SSE 02:30:49 17° SSE 02:32:25 10° SSE visible
29 Sep 12.7 04:11:20 15° SW 04:11:20 15° SW 04:12:13 10° SSW visible
30 Sep 13.6 01:58:07 10° SE 01:58:07 10° SE 01:58:25 10° SE visible
30 Sep 12.4 03:38:39 23° SSW 03:38:39 23° SSW 03:40:31 10° SSW visible
01 Oct 12.4 03:05:57 26° SSE 03:05:57 26° SSE 03:08:20 10° S visible
02 Oct 12.9 03:33:16 20° SE 03:33:16 20° SE 03:35:39 10° SSE visible
02 Oct 12.4 05:13:47 18° SW 05:13:47 18° SW 05:15:20 10° SSW visible
03 Oct 13.5 03:00:34 12° SE 03:00:34 12° SE 03:01:53 10° SE visible
03 Oct 11.9 04:41:06 30° SSW 04:41:06 30° SSW 04:43:39 10° SSW visible
04 Oct 12.0 04:08:24 34° SSE 04:08:24 34° SSE 04:11:30 10° S visible
04 Oct 12.7 05:48:55 11° WSW 05:48:55 11° WSW 05:49:10 10° SW visible
